Wind_Speed
32 33 34 35 37 39 39 39 38 38 36 35 35 34 34 35 34 34 32 31 30 28 27 26 25 24 24 23 21 20 19 18 17 17 16 16 16 16 16 16 16 16 15
31 32 33 34 36 38 39 40 41 41 39 38 38 38 38 38 38 37 37 36 34 32 31 29 28 27 27 26 26 25 24 22 21 20 19 18 18 18 18 18 18 18 18
31 31 31 32 34 36 38 38 40 41 41 41 41 40 39 38 37 37 37 37 37 36 35 33 32 31 31 30 30 29 28 27 25 24 23 21 20 20 19 20 20 20 20
29 30 31 31 33 34 36 37 38 39 41 41 41 40 39 39 38 38 37 35 37 38 37 37 36 34 34 33 33 33 32 31 30 29 28 26 25 23 22 21 22 22 23
27 28 29 31 32 34 35 37 38 39 40 40 41 41 39 39 39 37 35 35 35 36 39 40 39 39 37 36 36 36 35 34 34 33 32 31 29 28 27 26 25 24 25
25 26 28 29 31 33 35 36 38 39 40 41 41 40 39 38 38 37 36 35 35 35 37 39 40 41 41 39 39 38 37 36 36 36 36 34 33 32 31 30 29 27 27
22 24 26 28 30 32 34 36 38 40 40 41 42 41 40 39 38 38 37 36 34 34 36 39 40 40 41 42 41 40 39 38 38 38 38 37 36 35 34 33 32 30 29
22 23 25 27 29 32 34 36 38 39 40 41 42 41 38 37 37 37 37 35 35 34 34 36 38 39 40 41 41 40 39 39 39 39 38 38 38 38 37 37 35 34 32
23 24 25 27 29 31 33 35 37 39 40 41 41 41 39 36 35 35 34 34 34 33 32 33 34 35 37 39 40 40 39 39 40 39 39 39 39 39 39 39 38 37 35
24 25 26 28 29 31 32 34 36 38 39 40 41 41 40 37 36 33 32 32 31 32 31 31 31 33 34 36 37 38 38 39 39 40 40 39 40 40 40 40 40 38 37
25 26 26 28 30 31 32 33 34 36 38 39 40 41 40 39 37 35 32 31 32 32 32 31 30 31 31 32 33 34 35 36 37 38 38 39 40 40 40 40 40 40 39
26 27 27 28 30 31 32 33 33 34 36 37 38 39 40 39 38 37 35 33 33 32 32 32 31 31 31 31 31 31 32 33 34 35 36 36 38 38 39 40 40 40 39
28 28 28 29 30 31 32 33 33 33 34 35 36 37 38 39 38 38 37 35 34 34 34 33 33 33 33 32 33 32 32 33 34 34 35 35 36 36 36 38 39 40 40
30 29 29 29 30 31 32 33 33 33 33 33 34 35 36 37 38 38 37 36 36 35 35 35 34 34 34 34 34 33 33 34 34 34 34 35 35 35 35 36 37 38 39
31 30 30 29 30 31 32 33 33 32 31 32 32 33 34 35 36 37 37 36 36 36 35 35 35 34 34 34 33 33 32 32 33 33 34 35 36 36 35 36 36 37 37
32 31 30 30 30 31 31 32 32 32 31 31 31 31 32 33 35 35 36 36 36 36 35 34 34 34 33 32 31 30 31 32 32 32 33 34 36 38 38 38 39 39 40
34 33 32 31 31 31 32 32 32 31 30 29 29 29 30 31 32 33 34 34 34 34 34 33 33 32 31 31 30 29 29 28 30 30 31 33 35 36 37 38 40 42 42
37 35 33 32 32 31 31 32 32 31 29 28 28 27 28 28 29 30 31 32 32 32 31 32 31 31 29 29 29 29 27 27 27 28 30 32 32 34 36 37 39 40 42
41 38 36 34 33 33 32 32 32 31 30 28 27 26 25 25 27 28 28 29 29 29 30 30 30 29 28 27 28 27 27 27 27 27 27 28 29 31 33 34 35 37 38
46 42 39 37 35 34 33 33 32 31 30 28 26 25 23 23 24 25 26 26 26 26 27 27 27 27 27 27 28 28 27 25 24 23 22 23 24 25 26 27 28 30 31
51 47 44 41 39 37 36 34 33 32 30 28 26 24 23 22 22 23 24 25 25 25 26 27 28 29 28 27 27 26 25 24 23 21 21 20 20 20 21 22 23 24 26
54 51 48 46 43 41 38 36 35 33 30 28 25 24 22 22 23 24 25 24 25 25 26 27 28 28 27 26 25 23 23 22 21 20 18 17 17 17 17 18 19 20 21
59 54 51 48 46 43 41 38 36 33 31 27 25 23 23 22 22 23 25 24 24 25 25 25 25 25 24 22 20 20 18 17 15 14 14 14 13 14 14 16 17 19 21
60 56 53 50 47 45 42 39 37 33 30 27 24 22 22 23 22 22 22 24 25 24 24 24 24 23 21 19 17 16 14 13 13 12 12 12 13 13 14 15 17 19 21
57 55 52 50 47 44 42 39 36 33 29 26 25 23 22 23 24 23 22 23 24 25 23 22 21 19 17 15 14 13 13 12 12 11 11 11 11 11 13 14 16 18 20
49 49 47 46 44 42 40 38 35 32 29 26 24 22 22 22 22 22 21 22 23 22 21 19 18 16 15 14 12 12 12 11 10 9 9 9 9 10 11 12 14 16 19
Wind_Direction
282 280 280 279 277 276 274 274 273 272 271 271 272 273 273 273 272 270 266 262 259 257 254 252 250 248 247 247 246 245 244 245 245 244 243 242 242 242 242 243 245 246 247
284 283 281 280 280 279 277 274 273 274 273 271 271 271 272 273 275 273 270 263 258 256 254 253 251 250 249 249 248 247 246 246 246 246 246 245 245 245 245 244 245 246 246
285 284 284 282 281 281 280 278 277 273 272 272 271 271 272 273 275 274 276 268 260 256 253 252 251 251 250 249 249 248 247 247 247 247 247 248 248 249 249 248 247 246 246
288 287 287 285 284 283 282 281 280 277 275 274 273 272 273 273 275 275 277 275 266 260 256 254 252 252 251 251 250 249 248 248 247 247 248 249 249 250 252 252 251 249 247
294 293 291 289 287 285 283 283 282 280 278 276 275 273 274 275 275 277 279 278 272 265 258 254 254 253 252 252 252 251 250 249 249 249 248 249 250 251 252 253 253 252 249
298 298 297 295 292 289 286 283 281 280 279 278 277 276 275 275 274 276 275 275 273 267 260 255 254 254 253 253 253 252 252 251 252 252 251 251 251 252 252 252 253 253 250
301 301 302 300 295 292 288 285 282 279 279 277 276 276 275 275 274 275 274 274 273 268 261 258 255 254 254 253 253 252 253 253 253 253 253 253 252 252 252 252 253 254 252
305 305 306 305 301 297 292 287 283 280 278 277 277 277 276 275 274 274 273 272 271 269 265 260 256 254 254 253 253 253 253 253 254 254 254 254 253 252 252 252 253 253 254
307 307 307 307 306 302 298 292 286 281 278 276 275 276 276 275 273 272 272 271 270 268 267 263 257 255 254 254 254 253 253 253 253 254 255 255 254 253 251 251 251 251 252
305 306 308 309 309 306 302 297 291 284 279 275 273 272 273 273 271 271 270 270 269 267 266 263 260 257 256 255 254 253 253 254 255 255 256 255 254 252 251 250 249 249 249
301 303 306 307 309 309 305 301 295 288 282 277 273 271 270 270 271 270 268 268 267 266 264 263 261 258 256 255 254 253 253 255 255 255 255 255 253 251 249 248 247 247 247
296 300 304 307 309 310 309 305 300 293 285 279 275 271 268 267 267 267 266 265 265 264 264 262 261 259 258 257 256 255 254 255 255 254 254 254 252 249 247 246 246 245 245
292 296 301 305 309 311 312 310 305 299 291 283 277 272 268 266 264 264 264 264 264 264 263 261 261 260 260 259 258 257 257 256 256 254 254 252 250 247 246 245 245 243 244
288 292 297 302 306 309 311 311 308 303 296 287 279 273 269 266 263 263 263 262 263 264 263 262 261 261 260 260 259 259 258 256 256 254 252 250 246 244 244 244 244 244 244
287 290 294 299 303 306 309 310 308 304 299 291 283 276 270 266 263 262 261 261 262 263 262 262 261 261 261 260 260 258 256 255 254 254 251 248 245 243 242 243 241 240 240
286 288 291 295 299 303 306 309 308 305 301 294 287 278 272 268 264 262 261 261 261 261 261 261 260 260 259 258 257 257 255 253 253 253 251 248 246 245 243 242 238 237 236
284 287 288 291 295 300 303 306 307 306 302 296 289 281 274 269 264 261 259 259 259 259 259 259 258 257 255 253 252 254 254 254 253 252 251 250 249 248 246 243 241 239 236
282 284 286 287 290 295 300 303 305 304 302 297 290 283 276 268 262 258 256 255 255 255 255 253 252 251 250 249 250 252 253 252 255 255 253 253 253 253 248 245 244 241 238
279 281 283 284 286 290 295 298 301 301 300 297 291 284 276 267 262 257 254 253 251 250 249 248 247 244 244 244 246 249 251 254 256 255 256 256 257 256 252 250 248 245 243
275 277 280 281 282 285 289 293 296 298 296 294 289 283 275 266 260 256 252 248 245 243 241 241 241 240 241 244 246 248 250 250 252 255 257 259 257 257 256 255 253 251 250
272 273 276 277 279 281 284 287 290 293 292 289 285 279 271 262 258 252 248 243 241 240 239 240 240 241 241 242 243 245 246 250 253 255 257 257 256 256 257 258 258 258 258
271 271 272 273 274 276 278 280 284 286 286 283 278 272 266 258 251 248 244 242 241 238 237 238 237 240 242 243 242 243 246 247 248 249 251 251 251 253 256 257 259 261 262
268 268 268 268 269 270 272 274 276 278 279 275 271 265 258 255 248 246 243 240 238 236 236 234 235 240 240 239 238 239 238 239 241 243 246 249 252 256 260 264 267 270 272
263 262 262 262 263 264 265 266 267 269 270 268 265 259 254 251 248 242 239 239 234 234 235 234 233 234 231 230 230 230 230 233 237 240 243 249 255 261 267 272 275 277 279
257 255 254 255 255 256 257 257 259 260 261 260 258 254 248 246 239 235 235 234 234 234 234 229 226 224 221 221 221 225 227 228 230 235 242 250 259 266 273 278 282 285 287
248 245 243 243 244 245 247 249 250 251 251 250 248 245 240 236 232 233 231 232 229 225 222 218 215 213 213 214 216 219 221 222 227 233 240 248 258 268 279 286 291 295 299
Height
5879 5877 5876 5875 5874 5872 5871 5870 5869 5868 5868 5868 5868 5867 5867 5867 5866 5866 5866 5867 5867 5867 5868 5869 5870 5870 5871 5872 5872 5873 5874 5875 5875 5876 5877 5877 5878 5878 5879 5880 5881 5882 5883
5872 5870 5869 5868 5866 5864 5863 5862 5861 5860 5860 5859 5860 5859 5859 5859 5858 5857 5858 5858 5859 5860 5861 5862 5863 5864 5865 5866 5867 5868 5869 5870 5871 5872 5873 5874 5874 5875 5875 5876 5877 5878 5879
5864 5863 5862 5861 5859 5857 5855 5854 5853 5852 5851 5851 5850 5850 5850 5850 5849 5849 5849 5849 5850 5851 5852 5854 5855 5857 5858 5859 5860 5862 5863 5864 5865 5867 5868 5869 5870 5871 5871 5872 5873 5874 5875
5857 5855 5854 5853 5851 5849 5848 5846 5845 5843 5842 5841 5841 5841 5841 5841 5841 5840 5840 5840 5841 5842 5843 5845 5846 5848 5850 5851 5853 5854 5856 5857 5859 5860 5862 5863 5865 5866 5867 5867 5868 5869 5870
5850 5848 5846 5845 5843 5841 5839 5838 5836 5834 5833 5832 5831 5831 5831 5831 5832 5831 5832 5831 5831 5832 5834 5835 5837 5839 5841 5843 5844 5846 5848 5849 5851 5853 5855 5856 5858 5859 5861 5862 5863 5864 5865
5843 5841 5838 5837 5835 5833 5831 5829 5827 5825 5824 5823 5822 5822 5822 5822 5822 5822 5823 5822 5822 5823 5823 5825 5827 5829 5831 5833 5835 5837 5839 5841 5843 5845 5846 5848 5850 5852 5854 5855 5857 5858 5859
5836 5834 5832 5829 5827 5824 5823 5820 5818 5817 5815 5813 5812 5812 5813 5812 5812 5813 5813 5813 5813 5814 5814 5815 5817 5819 5821 5823 5826 5828 5830 5832 5834 5836 5838 5840 5842 5844 5846 5848 5850 5851 5853
5830 5827 5825 5822 5819 5816 5814 5811 5809 5807 5806 5804 5802 5802 5802 5804 5804 5803 5803 5804 5804 5805 5805 5806 5807 5809 5811 5813 5816 5818 5820 5822 5825 5827 5829 5831 5833 5835 5837 5839 5841 5843 5845
5823 5820 5818 5814 5811 5808 5805 5802 5799 5797 5796 5795 5793 5792 5793 5795 5794 5795 5795 5795 5795 5795 5796 5797 5798 5800 5801 5803 5806 5808 5811 5813 5815 5817 5820 5822 5824 5826 5828 5830 5833 5835 5837
5816 5813 5810 5807 5803 5800 5796 5793 5790 5787 5786 5785 5784 5783 5784 5785 5785 5786 5787 5786 5787 5787 5788 5788 5789 5791 5793 5794 5796 5799 5801 5803 5805 5808 5810 5812 5813 5816 5818 5821 5823 5826 5828
5808 5806 5803 5799 5795 5792 5788 5784 5781 5778 5776 5775 5774 5774 5774 5775 5775 5776 5778 5779 5778 5779 5779 5780 5782 5783 5784 5785 5787 5790 5792 5794 5796 5798 5800 5801 5803 5806 5808 5811 5814 5817 5819
5801 5798 5795 5791 5787 5783 5779 5775 5772 5769 5766 5765 5764 5764 5764 5765 5767 5767 5769 5770 5770 5771 5771 5772 5773 5774 5776 5777 5779 5781 5783 5785 5787 5788 5790 5792 5793 5796 5799 5802 5804 5807 5810
5793 5790 5787 5783 5779 5775 5771 5767 5763 5759 5757 5755 5754 5753 5754 5755 5757 5758 5759 5761 5761 5762 5763 5764 5765 5766 5768 5769 5771 5773 5774 5776 5778 5779 5781 5783 5785 5787 5789 5792 5795 5798 5801
5785 5782 5778 5775 5771 5767 5763 5759 5755 5751 5748 5746 5745 5744 5744 5745 5747 5748 5750 5751 5752 5753 5754 5755 5756 5758 5759 5760 5762 5764 5766 5767 5769 5771 5772 5774 5776 5778 5781 5784 5786 5789 5792
5775 5772 5769 5766 5762 5759 5755 5751 5747 5743 5740 5737 5736 5735 5735 5735 5736 5738 5740 5742 5743 5744 5745 5746 5748 5749 5751 5752 5754 5755 5757 5759 5760 5762 5764 5766 5768 5770 5773 5775 5778 5780 5783
5764 5762 5759 5756 5753 5750 5746 5742 5739 5735 5732 5729 5727 5726 5726 5726 5727 5729 5730 5732 5734 5735 5736 5737 5739 5741 5742 5744 5746 5747 5749 5750 5752 5754 5755 5757 5760 5762 5765 5767 5769 5771 5774
5753 5751 5749 5747 5744 5741 5738 5734 5731 5727 5724 5722 5719 5718 5717 5717 5718 5719 5721 5723 5724 5726 5727 5729 5730 5732 5734 5736 5738 5740 5741 5742 5744 5745 5747 5749 5751 5753 5755 5758 5760 5762 5764
5741 5740 5738 5736 5734 5732 5729 5726 5723 5720 5717 5714 5712 5710 5709 5709 5709 5711 5712 5714 5716 5717 5719 5721 5723 5724 5726 5728 5730 5732 5734 5736 5737 5738 5740 5742 5744 5745 5747 5749 5751 5753 5755
5728 5727 5727 5726 5724 5722 5720 5718 5715 5712 5709 5707 5705 5703 5702 5701 5702 5703 5704 5706 5708 5710 5712 5714 5715 5717 5719 5722 5724 5725 5727 5729 5730 5732 5733 5735 5736 5737 5739 5741 5742 5744 5746
5713 5714 5714 5714 5713 5712 5711 5709 5707 5704 5702 5700 5698 5696 5695 5694 5695 5696 5697 5699 5701 5703 5705 5707 5709 5711 5713 5715 5717 5719 5721 5723 5724 5725 5727 5728 5729 5731 5732 5734 5736 5737 5739
5697 5698 5700 5701 5701 5701 5700 5699 5698 5696 5694 5692 5690 5689 5688 5688 5688 5689 5691 5692 5694 5697 5699 5701 5703 5705 5707 5709 5711 5713 5715 5717 5718 5720 5721 5723 5724 5726 5727 5728 5730 5731 5733
5679 5682 5684 5686 5688 5689 5689 5689 5688 5687 5686 5684 5683 5682 5682 5681 5682 5683 5684 5686 5688 5691 5693 5695 5698 5700 5701 5703 5705 5707 5710 5711 5713 5715 5716 5718 5719 5720 5722 5723 5724 5726 5727
5659 5663 5667 5670 5673 5675 5677 5678 5678 5678 5677 5676 5676 5675 5675 5675 5676 5677 5678 5680 5682 5685 5688 5690 5692 5694 5696 5698 5700 5703 5705 5707 5709 5710 5712 5713 5715 5716 5717 5718 5719 5720 5721
5638 5644 5649 5653 5657 5661 5664 5666 5667 5668 5668 5668 5668 5668 5668 5669 5670 5671 5673 5675 5677 5679 5682 5685 5687 5690 5692 5694 5696 5699 5701 5703 5705 5707 5708 5710 5711 5712 5713 5713 5714 5715 5715
5616 5623 5629 5636 5641 5646 5650 5653 5655 5657 5658 5659 5660 5660 5661 5662 5664 5666 5668 5670 5672 5675 5677 5680 5682 5685 5688 5690 5693 5695 5697 5700 5701 5703 5704 5706 5707 5708 5708 5709 5709 5709 5709
5595 5602 5610 5618 5625 5631 5636 5641 5644 5647 5649 5651 5652 5653 5655 5656 5658 5660 5663 5665 5668 5670 5673 5676 5679 5682 5685 5687 5690 5692 5695 5697 5698 5700 5701 5703 5703 5704 5705 5705 5704 5704 5703